Location: Sungai Dangang
(2.7500°N, 113.8333°E)
Time: 18:19:48
(UTC+00:00)

Ariane H10+ - Pass Details

Date: 30 September 2021
Orbit: 238 x 7752 km, 6.8° (Epoch: 23 October)

Event Time Altitude Azimuth Distance (km) Brightness Sun altitude
Exits shadow 18:17:59 47° 115° (ESE) 3,343 5.1 -59.2°
Drops below altitude 10° 18:40:05 10° 91° (E) 9,090 7.9 -53.6°
Sets 18:51:57 0° 88° (E) 11,398 8.6 -50.7°
